Minamitorishima, Japan

3:23 AM ChST on March 29, 2017 (GMT +1000)
Minamitorishima

Weather History for RJAM - January, 2014

Change the Weather History Date:

Wednesday, January 15, 2014

  Actual Average Record
Temperature  
Mean Temperature 72 °F -  
Max Temperature 74 °F 76 °F - ()
Min Temperature 70 °F 67 °F - ()
Cooling Degree Days 7    
Growing Degree Days 22 (Base 50)    
Moisture  
Dew Point 62 °F    
Average Humidity 61    
Maximum Humidity 71    
Minimum Humidity 52    
Precipitation  
Precipitation 0.00 in 0.09 in - ()
Sea Level Pressure  
Sea Level Pressure 30.08 in    
Wind  
Wind Speed 16 mph ()    
Max Wind Speed 28 mph    
Max Gust Speed -    
T = Trace of Precipitation, MM = Missing Value Source: Averaged Metar Reports

Daily Weather History Graph

Daily Weather History Graph

Search for Another Location

Airport or City:

Trip Planner

Search our weather history database for the weather conditions in past years. The results will help you decide how hot, cold, wet, or windy it might be!

Date:

Astronomy

Jan. 15, 2014 Rise Set
Actual Time 6:29 AM ChST 5:17 PM ChST
Civil Twilight 6:05 AM ChST 5:41 PM ChST
Nautical Twilight 5:37 AM ChST 6:09 PM ChST
Astronomical Twilight 5:09 AM ChST 6:37 PM ChST
Moon 4:35 PM ChST (1/15) 5:21 AM ChST (1/15)
Length of Visible Light 11h 36m
Length of Day
10h 47m
Waxing Gibbous, 99% of the Moon is Illuminated
Jan 15
Waxing Gibbous
Jan 16
Full
Jan 24
Last Quarter
Jan 31
New
Feb 7
First Quarter

Hourly Weather History & Observations

Time (ChST) Temp. Dew Point Humidity Pressure Visibility Wind Dir Wind Speed Gust Speed Precip Events Conditions
12:00 AM 71 °F 61 °F 64% 30.13 in - NE 13.8 mph - -  
1:00 AM 71 °F 62 °F 64% 30.12 in - ENE 13.8 mph - -  
2:00 AM 71 °F 63 °F 68% 30.11 in - NE 18.4 mph - -  
3:00 AM 71 °F 61 °F 62% 30.11 in - NE 16.1 mph - -  
4:00 AM 71 °F 59 °F 58% 30.11 in - NE 17.3 mph - -  
5:00 AM 71 °F 61 °F 62% 30.11 in - ENE 17.3 mph - -  
6:00 AM 71 °F 60 °F 60% 30.12 in - ENE 17.3 mph - -  
7:00 AM 72 °F 60 °F 58% 30.13 in - ENE 16.1 mph - -  
8:00 AM 72 °F 62 °F 64% 30.14 in - East 17.3 mph - -  
9:00 AM 73 °F 62 °F 60% 30.15 in - East 20.7 mph - -  
10:00 AM 73 °F 62 °F 59% 30.14 in - East 20.7 mph - -  
11:00 AM 74 °F 60 °F 52% 30.12 in - East 18.4 mph - -  
12:00 PM 73 °F 60 °F 55% 30.09 in - East 19.6 mph - -  
1:00 PM 73 °F 61 °F 56% 30.06 in - East 18.4 mph - -  
2:00 PM 73 °F 62 °F 59% 30.05 in - East 18.4 mph - -  
3:00 PM 73 °F 61 °F 58% 30.04 in - East 21.9 mph - -  
4:00 PM 72 °F 60 °F 57% 30.05 in - East 20.7 mph - -  
5:00 PM 72 °F 62 °F 62% 30.06 in - East 20.7 mph - -  
6:00 PM 72 °F 62 °F 63% 30.04 in - ESE 24.2 mph - -  
7:00 PM 72 °F 62 °F 64% 30.03 in - ESE 27.6 mph - -  
8:00 PM 72 °F 63 °F 67% 30.02 in - ESE 27.6 mph - -  
9:00 PM 73 °F 63 °F 63% 30.03 in - SE 24.2 mph - -  
10:00 PM 73 °F 63 °F 63% 30.04 in - SE 20.7 mph - -  
11:00 PM 73 °F 65 °F 71% 30.02 in - SE 18.4 mph - -